| time (UTC) | temp F | wind direction | speed MPH | gust MPH | rain 1hr in | rain 24hr in | rain mn in | humidity % | barometer mb |
| 20260503172903 | 58 | 36 | 2.0 | 5.0 | 0.00 | 0.07 | 0.07 | 48 | 1020.4 |
| 20260503171904 | 58 | 43 | 3.0 | 5.0 | 0.00 | 0.07 | 0.07 | 46 | 1020.3 |
| 20260503171405 | 58 | 42 | 1.0 | 7.0 | 0.00 | 0.07 | 0.07 | 47 | 1020.3 |
| 20260503170904 | 59 | 38 | 2.0 | 7.0 | 0.00 | 0.07 | 0.07 | 46 | 1020.2 |
| 20260503170404 | 59 | 46 | 2.0 | 6.0 | 0.00 | 0.07 | 0.07 | 47 | 1020.1 |
| 20260503150905 | 64 | 313 | 1.0 | 7.0 | 0.00 | 0.07 | 0.07 | 39 | 1020.0 |
| 20260503131410 | 63 | 238 | 3.0 | 10.0 | 0.00 | 0.07 | 0.07 | 43 | 1020.6 |
| 20260503130904 | 63 | 253 | 3.0 | 10.0 | 0.00 | 0.07 | 0.07 | 44 | 1020.6 |
| 20260503130404 | 64 | 213 | 2.0 | 7.0 | 0.00 | 0.07 | 0.07 | 44 | 1020.6 |
| 20260503110403 | 61 | 228 | 1.0 | 7.0 | 0.00 | 0.07 | 0.07 | 50 | 1021.3 |
| 20260503090405 | 55 | 265 | 1.0 | 7.0 | 0.00 | 0.07 | 0.07 | 63 | 1022.1 |
| 20260503081405 | 59 | 20 | 1.0 | 3.0 | 0.00 | 0.07 | 0.07 | 52 | 1022.0 |
| 20260503080905 | 59 | 8 | 1.0 | 3.0 | 0.00 | 0.07 | 0.07 | 52 | 1022.0 |
| 20260503080404 | 59 | 353 | 1.0 | 3.0 | 0.00 | 0.07 | 0.07 | 51 | 1021.9 |
| 20260503072907 | 53 | 261 | 0.0 | 3.0 | 0.00 | 0.07 | 0.07 | 62 | 1022.0 |
| 20260503072406 | 53 | 280 | 1.0 | 6.0 | 0.00 | 0.07 | 0.07 | 62 | 1022.0 |
| 20260503071904 | 53 | 15 | 0.0 | 6.0 | 0.00 | 0.07 | 0.07 | 64 | 1022.0 |
| 20260503071403 | 53 | 23 | 3.0 | 7.0 | 0.00 | 0.07 | 0.07 | 62 | 1022.0 |
| 20260503070905 | 53 | 16 | 2.0 | 7.0 | 0.00 | 0.07 | 0.07 | 61 | 1022.0 |
| 20260503070404 | 52 | 20 | 2.0 | 6.0 | 0.00 | 0.07 | 0.07 | 61 | 1021.9 |
| 20260503054906 | 49 | 241 | 0.0 | 2.0 | 0.00 | 0.07 | 0.07 | 84 | 1021.5 |
| 20260503054404 | 48 | 233 | 0.0 | 3.0 | 0.00 | 0.07 | 0.07 | 84 | 1021.6 |
| 20260503053906 | 48 | 233 | 1.0 | 3.0 | 0.00 | 0.07 | 0.07 | 85 | 1021.6 |
| 20260503053403 | 48 | 256 | 1.0 | 3.0 | 0.00 | 0.07 | 0.07 | 85 | 1021.6 |
| 20260503052905 | 48 | 224 | 0.0 | 2.0 | 0.00 | 0.07 | 0.07 | 85 | 1021.6 |
| 20260503051904 | 48 | 325 | 0.0 | 3.0 | 0.01 | 0.07 | 0.07 | 85 | 1021.5 |
| 20260503051404 | 48 | 305 | 0.0 | 3.0 | 0.03 | 0.07 | 0.07 | 85 | 1021.4 |
| 20260503050905 | 48 | 36 | 0.0 | 1.0 | 0.04 | 0.07 | 0.07 | 85 | 1021.2 |
| 20260503045905 | 48 | 36 | 0.0 | 1.0 | 0.04 | 0.07 | 0.07 | 85 | 1021.2 |
| 20260503045403 | 48 | 36 | 0.0 | 1.0 | 0.04 | 0.07 | 0.07 | 84 | 1021.1 |
| 20260503044404 | 48 | 29 | 0.0 | 1.0 | 0.04 | 0.07 | 0.07 | 84 | 1021.0 |
| 20260503043905 | 48 | 32 | 0.0 | 1.0 | 0.04 | 0.07 | 0.07 | 84 | 1021.0 |
| 20260503043405 | 48 | 6 | 0.0 | 1.0 | 0.04 | 0.07 | 0.07 | 83 | 1020.9 |
| 20260503042905 | 49 | 5 | 0.0 | 1.0 | 0.04 | 0.07 | 0.07 | 81 | 1020.9 |
| 20260503042404 | 49 | 30 | 0.0 | 2.0 | 0.04 | 0.07 | 0.07 | 81 | 1021.0 |
| 20260503041904 | 49 | 30 | 0.0 | 3.0 | 0.03 | 0.06 | 0.06 | 79 | 1020.9 |
| 20260503041403 | 49 | 345 | 1.0 | 3.0 | 0.01 | 0.04 | 0.04 | 78 | 1020.8 |
| 20260503040903 | 48 | 7 | 0.0 | 2.0 | 0.00 | 0.03 | 0.03 | 81 | 1020.8 |
| 20260503035906 | 48 | 25 | 0.0 | 2.0 | 0.00 | 0.03 | 0.03 | 80 | 1020.7 |
| 20260503035405 | 47 | 29 | 1.0 | 2.0 | 0.00 | 0.03 | 0.03 | 78 | 1020.7 |
| 20260503034903 | 47 | 354 | 0.0 | 1.0 | 0.00 | 0.03 | 0.03 | 78 | 1020.5 |
| 20260503034403 | 48 | 294 | 0.0 | 6.0 | 0.00 | 0.03 | 0.03 | 77 | 1020.4 |
| 20260503033904 | 48 | 24 | 1.0 | 6.0 | 0.00 | 0.03 | 0.03 | 76 | 1020.3 |
| 20260503033405 | 48 | 50 | 2.0 | 6.0 | 0.00 | 0.03 | 0.03 | 75 | 1020.3 |
| 20260503032904 | 48 | 31 | 2.0 | 5.0 | 0.00 | 0.03 | 0.03 | 75 | 1020.3 |
| 20260503032404 | 48 | 32 | 1.0 | 3.0 | 0.00 | 0.03 | 0.03 | 75 | 1020.2 |
| 20260503031905 | 48 | 39 | 1.0 | 6.0 | 0.00 | 0.03 | 0.03 | 75 | 1020.2 |
| 20260503031403 | 48 | 42 | 1.0 | 10.0 | 0.00 | 0.03 | 0.03 | 75 | 1020.2 |
| 20260503030403 | 47 | 45 | 4.0 | 7.0 | 0.00 | 0.03 | 0.03 | 77 | 1020.3 |
| 20260503025904 | 47 | 34 | 2.0 | 5.0 | 0.00 | 0.03 | 0.03 | 78 | 1020.2 |
| 20260503024405 | 47 | 47 | 1.0 | 6.0 | 0.00 | 0.03 | 0.03 | 77 | 1020.6 |
| 20260503023904 | 47 | 25 | 2.0 | 5.0 | 0.00 | 0.03 | 0.03 | 77 | 1020.6 |
| 20260503023405 | 47 | 39 | 0.0 | 3.0 | 0.00 | 0.03 | 0.03 | 78 | 1020.6 |
| 20260503022904 | 46 | 44 | 1.0 | 3.0 | 0.00 | 0.03 | 0.03 | 79 | 1020.6 |
| 20260503022404 | 46 | 24 | 1.0 | 3.0 | 0.00 | 0.03 | 0.03 | 81 | 1020.6 |
| 20260503021904 | 45 | 37 | 2.0 | 3.0 | 0.00 | 0.03 | 0.03 | 82 | 1020.5 |
| 20260503020905 | 45 | 353 | 0.0 | 1.0 | 0.00 | 0.03 | 0.03 | 83 | 1020.4 |
| 20260503020404 | 45 | 17 | 1.0 | 1.0 | 0.00 | 0.03 | 0.03 | 82 | 1020.3 |
| 20260503014904 | 46 | 65 | 0.0 | 1.0 | 0.00 | 0.03 | 0.03 | 81 | 1020.3 |
| 20260503014405 | 46 | 65 | 0.0 | 1.0 | 0.00 | 0.03 | 0.03 | 80 | 1020.2 |
| 20260503013904 | 46 | 65 | 0.0 | 1.0 | 0.00 | 0.03 | 0.03 | 80 | 1020.3 |
| 20260503013404 | 47 | 65 | 0.0 | 1.0 | 0.00 | 0.03 | 0.03 | 79 | 1020.3 |
| 20260503012904 | 47 | 66 | 1.0 | 1.0 | 0.00 | 0.03 | 0.03 | 79 | 1020.4 |
| 20260503012405 | 46 | 72 | 0.0 | 3.0 | 0.00 | 0.03 | 0.03 | 80 | 1020.5 |
| 20260503011904 | 46 | 27 | 0.0 | 3.0 | 0.00 | 0.03 | 0.03 | 80 | 1020.5 |
| 20260503010906 | 46 | 41 | 2.0 | 3.0 | 0.00 | 0.03 | 0.03 | 81 | 1020.4 |
| 20260503005906 | 46 | 355 | 0.0 | 3.0 | 0.00 | 0.03 | 0.03 | 81 | 1020.5 |
| 20260503005405 | 46 | 23 | 1.0 | 3.0 | 0.01 | 0.03 | 0.03 | 81 | 1020.4 |
| 20260503004403 | 47 | 13 | 1.0 | 2.0 | 0.01 | 0.03 | 0.03 | 82 | 1020.5 |
| 20260503003903 | 47 | 49 | 0.0 | 2.0 | 0.01 | 0.03 | 0.03 | 82 | 1020.5 |
| 20260503002405 | 46 | 58 | 1.0 | 3.0 | 0.01 | 0.03 | 0.03 | 84 | 1020.8 |
| 20260503001903 | 46 | 74 | 2.0 | 3.0 | 0.01 | 0.03 | 0.03 | 84 | 1020.9 |
| 20260503001406 | 46 | 51 | 2.0 | 3.0 | 0.01 | 0.03 | 0.03 | 85 | 1020.9 |
| 20260503000903 | 47 | 44 | 0.0 | 2.0 | 0.01 | 0.03 | 0.03 | 84 | 1020.9 |
| 20260503000407 | 47 | 59 | 1.0 | 5.0 | 0.01 | 0.03 | 0.03 | 83 | 1020.9 |
| 20260502235904 | 47 | 172 | 1.0 | 5.0 | 0.01 | 0.03 | 0.03 | 83 | 1021.0 |
| 20260502235404 | 47 | 169 | 1.0 | 2.0 | 0.00 | 0.02 | 0.02 | 83 | 1020.9 |
| 20260502234903 | 47 | 160 | 0.0 | 2.0 | 0.00 | 0.02 | 0.02 | 83 | 1021.1 |
| 20260502233903 | 48 | 48 | 0.0 | 3.0 | 0.00 | 0.02 | 0.02 | 83 | 1021.2 |
| 20260502233404 | 48 | 206 | 1.0 | 3.0 | 0.00 | 0.02 | 0.02 | 81 | 1021.1 |
| 20260502223905 | 47 | 32 | 7.0 | 16.0 | 0.02 | 0.02 | 0.02 | 84 | 1021.5 |
| 20260502223403 | 47 | 29 | 9.0 | 16.0 | 0.02 | 0.02 | 0.02 | 84 | 1021.6 |
| 20260502222905 | 47 | 45 | 5.0 | 14.0 | 0.02 | 0.02 | 0.02 | 84 | 1021.6 |
| 20260502222404 | 47 | 22 | 3.0 | 7.0 | 0.01 | 0.01 | 0.01 | 84 | 1021.9 |
| 20260502221904 | 48 | 42 | 3.0 | 7.0 | 0.01 | 0.01 | 0.01 | 83 | 1022.1 |
| 20260502221404 | 48 | 49 | 5.0 | 13.0 | 0.01 | 0.01 | 0.01 | 82 | 1022.3 |
| 20260502220405 | 50 | 19 | 6.0 | 12.0 | 0.00 | 0.00 | 0.00 | 77 | 1022.3 |
| 20260502215904 | 50 | 27 | 3.0 | 9.0 | 0.00 | 0.00 | 0.00 | 76 | 1022.3 |
| 20260502215404 | 50 | 14 | 3.0 | 8.0 | 0.00 | 0.00 | 0.00 | 77 | 1022.3 |
| 20260502214904 | 50 | 28 | 3.0 | 8.0 | 0.00 | 0.01 | 0.00 | 76 | 1022.3 |
| 20260502214405 | 50 | 26 | 3.0 | 8.0 | 0.00 | 0.01 | 0.00 | 77 | 1022.3 |
| 20260502213904 | 50 | 30 | 2.0 | 3.0 | 0.00 | 0.01 | 0.00 | 78 | 1022.3 |
| 20260502213405 | 50 | 31 | 2.0 | 3.0 | 0.00 | 0.02 | 0.00 | 78 | 1022.2 |
| 20260502212904 | 50 | 52 | 1.0 | 2.0 | 0.00 | 0.02 | 0.00 | 80 | 1022.1 |
| 20260502211905 | 50 | 41 | 0.0 | 0.0 | 0.00 | 0.02 | 0.00 | 81 | 1022.0 |
| 20260502211404 | 50 | 41 | 0.0 | 2.0 | 0.00 | 0.03 | 0.00 | 81 | 1022.1 |
| 20260502210903 | 50 | 41 | 0.0 | 2.0 | 0.00 | 0.03 | 0.00 | 80 | 1022.1 |
| 20260502210404 | 50 | 41 | 1.0 | 3.0 | 0.00 | 0.03 | 0.00 | 80 | 1022.2 |
| 20260502205905 | 50 | 40 | 0.0 | 3.0 | 0.00 | 0.03 | 0.03 | 80 | 1022.2 |
| 20260502205406 | 50 | 40 | 1.0 | 3.0 | 0.00 | 0.03 | 0.03 | 80 | 1022.3 |
| 20260502204905 | 49 | 63 | 1.0 | 2.0 | 0.00 | 0.03 | 0.03 | 81 | 1022.3 |
| 20260502204404 | 49 | 28 | 0.0 | 2.0 | 0.00 | 0.03 | 0.03 | 81 | 1022.5 |
| 20260502203903 | 50 | 41 | 0.0 | 1.0 | 0.00 | 0.03 | 0.03 | 81 | 1022.4 |
| 20260502202904 | 50 | 41 | 0.0 | 1.0 | 0.00 | 0.03 | 0.03 | 80 | 1022.3 |
| 20260502202404 | 50 | 41 | 0.0 | 1.0 | 0.00 | 0.03 | 0.03 | 79 | 1022.4 |
| 20260502201905 | 50 | 41 | 0.0 | 1.0 | 0.00 | 0.03 | 0.03 | 79 | 1022.5 |
| 20260502201405 | 50 | 41 | 0.0 | 1.0 | 0.00 | 0.03 | 0.03 | 79 | 1022.4 |
| 20260502200903 | 50 | 29 | 0.0 | 1.0 | 0.00 | 0.03 | 0.03 | 78 | 1022.7 |
| 20260502200404 | 50 | 44 | 0.0 | 1.0 | 0.00 | 0.03 | 0.03 | 79 | 1022.6 |
| 20260502195905 | 50 | 44 | 0.0 | 3.0 | 0.00 | 0.03 | 0.03 | 78 | 1022.6 |
| 20260502195405 | 50 | 44 | 1.0 | 3.0 | 0.00 | 0.03 | 0.03 | 78 | 1022.6 |
| 20260502194904 | 50 | 313 | 0.0 | 3.0 | 0.00 | 0.03 | 0.03 | 79 | 1022.6 |
| 20260502194404 | 50 | 295 | 0.0 | 3.0 | 0.00 | 0.03 | 0.03 | 78 | 1022.7 |
| 20260502193904 | 50 | 61 | 0.0 | 0.0 | 0.00 | 0.03 | 0.03 | 80 | 1022.7 |
| 20260502192405 | 50 | 61 | 0.0 | 1.0 | 0.00 | 0.03 | 0.03 | 78 | 1022.6 |
| 20260502191903 | 50 | 61 | 0.0 | 1.0 | 0.00 | 0.03 | 0.03 | 77 | 1022.5 |
| 20260502191403 | 50 | 61 | 0.0 | 1.0 | 0.00 | 0.03 | 0.03 | 77 | 1022.5 |
| 20260502190903 | 50 | 62 | 1.0 | 2.0 | 0.00 | 0.03 | 0.03 | 77 | 1022.4 |
| 20260502190405 | 49 | 51 | 1.0 | 2.0 | 0.00 | 0.03 | 0.03 | 78 | 1022.3 |
| 20260502185905 | 49 | 56 | 1.0 | 2.0 | 0.00 | 0.03 | 0.03 | 78 | 1022.3 |
| 20260502185403 | 50 | 62 | 1.0 | 2.0 | 0.00 | 0.03 | 0.03 | 77 | 1022.3 |
| 20260502184903 | 50 | 62 | 0.0 | 2.0 | 0.00 | 0.03 | 0.03 | 77 | 1022.2 |
| 20260502184403 | 50 | 58 | 1.0 | 3.0 | 0.00 | 0.03 | 0.03 | 77 | 1022.2 |
| 20260502183905 | 50 | 43 | 1.0 | 3.0 | 0.00 | 0.03 | 0.03 | 77 | 1022.2 |
| 20260502183403 | 50 | 53 | 1.0 | 2.0 | 0.00 | 0.03 | 0.03 | 77 | 1022.1 |
| 20260502182903 | 50 | 58 | 1.0 | 2.0 | 0.00 | 0.03 | 0.03 | 78 | 1021.9 |
| 20260502182405 | 50 | 60 | 0.0 | 2.0 | 0.00 | 0.03 | 0.03 | 77 | 1021.8 |
| 20260502181905 | 50 | 59 | 1.0 | 2.0 | 0.00 | 0.03 | 0.03 | 77 | 1021.8 |
| 20260502181403 | 50 | 60 | 1.0 | 2.0 | 0.00 | 0.03 | 0.03 | 77 | 1021.7 |
| 20260502180405 | 51 | 60 | 1.0 | 3.0 | 0.00 | 0.03 | 0.03 | 76 | 1021.7 |